Location: Fauquembergues
(50.6005°N, 2.0987°E)
Time: 04:43:52
(UTC+00:00)

Meteor 1-23 Rocket - Pass Details

Date: 14 July 2020
Orbit: 838 x 887 km, 81.3° (Epoch: 06 August)

Event Time Altitude Azimuth Distance (km) Brightness Sun altitude
Rises 02:24:09 0° 347° (NNW) 3,459 8.1 -10.9°
Reaches altitude 10° 02:26:35 10° 347° (NNW) 2,525 7.3 -10.7°
Maximum altitude 02:32:20 85° 261° (W) 887 4.3 -10.1°
Drops below altitude 10° 02:38:08 10° 172° (S) 2,535 6.3 -9.6°
Sets 02:40:34 0° 172° (S) 3,474 7.0 -9.3°
Enters shadow 02:40:44 -1° 172° (S) 3,539 7.0 -9.3°
